OpenBCM V1.13 (Linux)

Packet Radio Mailbox

DB0FHN

[JN59NK Nuernberg]

 Login: GUEST





  
I6KZR  > KEPLER   25.02.03 23:24l 308 Lines 15403 Bytes #999 (0) @ WW
BID : 25651_IK6WID
Read: DB0FHN GUEST
Subj: 2L Keplerian Elements #055
Path: DB0FHN<DB0RGB<OK0PPL<OK0NAG<OK0PCC<OM0PBC<SR7BBS<SP7MGD<IK6PYS<IK6PYS<
      I6ZLO<IK6WID
Sent: 030225/2106Z @:IK6WID.#AP.IMAR.ITA.EU #:25651 [MONTE URANO]  FBB7.00i
From: I6KZR@IK6WID.#AP.IMAR.ITA.EU
To  : KEPLER@WW


OSCAR 7
1 07530U 74089B   03055.67718673 -.00000029 +00000-0 +10000-3 0 01775
2 07530 101.7600 103.4074 0012194 067.7090 292.5272 12.53564503293958
GOES 2
1 10061U 77048A   03051.70332233 -.00000279  00000-0  00000+0 0   940
2 10061  14.1349  13.4071 0012974 200.0160 159.9586  0.99400653 38853
GOES 3
1 10953U 78062A   03054.91954450 -.00000109  00000-0  00000+0 0  9327
2 10953  13.4124  17.1908 0005711 342.4276  17.5680  1.00279348 43551
GOES 6
1 14050U 83041A   03053.03607911 +.00000030 +00000-0 +10000-3 0 04288
2 14050 010.4089 035.5299 0004291 343.7591 016.2875 01.00303949130670
OSCAR 10
1 14129U 83058B   03053.29347507 -.00000135 +00000-0 +10000-3 0 09207
2 14129 025.9661 163.6642 6025305 329.8586 006.1874 02.05867335120141
OSCAR 11 (UoSAT 2)
1 14781U 84021B   03055.97503434 +.00001111 +00000-0 +16122-3 0 01018
2 14781 098.1189 029.9482 0009142 182.6863 177.4295 14.78016109017182
NOAA 10
1 16969U 86073A   03055.92870214 +.00000136 +00000-0 +74039-4 0 06782
2 16969 098.7307 050.0256 0013469 070.0928 290.1702 14.27066829854816
GOES 7
1 17561U 87022A   03056.21115156  .00000031  00000-0  10000-3 0  8633
2 17561   7.6141  55.5065 0005433 264.5861  91.COSMOS 1861
1 18129U 87054A   03055.77926900  .00000052  00000-0  40114-4 0  2037
2 18129  82.9276 141.9699 0010457 204.3114 155.7536 13.72701434785361
EUTELSAT 1-F4 (ECS 4)
1 18351U 87078B   03051.98344187 -.00000038  00000-0  00000+0 0   421
2 18351   7.2019  58.6515 0006906 200.6778 159.4474  0.98687085 42708
NOAA 11
1 19531U 88089A   03055.94851821 +.00000186 +00000-0 +11987-3 0 05162
2 19531 098.8997 137.3100 0011762 180.5720 179.5439 14.14541252743704
ASTRA 1A
1 19688U 88109B   03056.07808924  .00000021  00000-0  10000-3 0  5803
2 19688   1.4162  95.0461 0004605 239.4834 213.2784  1.00272959 32266
OSCAR 14 (UOSAT 3)
1 20437U 90005B   03055.72071325  .00000103  00000-0  54358-4 0  1726
2 20437  98.2692OSCAR 15 (UOSAT 4)
1 20438U 90005C   03055.60485129 +.00000079 +00000-0 +46101-4 0 07809
2 20438 098.2460 088.0239 0009422 190.9510 169.1469 14.30199844683028
OSCAR 16 (PACSAT)
1 20439U 90005D   03055.73460780  .00000085  00000-0  47680-4 0  8564
2 20439  98.3159 110.7730 0010612 186.0232 174.0809 14.31474200683413
OSCAR 17 (DOVE)
1 20440U 90005E   03055.72232589 +.00000171 +00000-0 +79510-4 0 07370
2 20440 098.3369 114.6695 0010601 184.8157 175.2929 14.31753132683488
OSCAR 18 (WEBERSAT)
1 20441U 90005F   03056.55378521  .00000114  00000-0  58474-4 0   208
2 20441  98.3325 114.6734 0011373 183.6326 176.4777 14.31556381683589
OSCAR 19 (LUSAT)
1 20442U 90005G   03056.25186524  .00000145  00000-0  69878-4 0  9715
2 20442  98.3446 117.4192 0011618 183.6820 176.4277 14.31719807683594
JAS 1B (FUJI 2)
1 20480U 90013C   03055.93821890 -.00000006 +00000-0 +63412-4 0 04879
2 20480 099.0474 017.4831 0540701 349.4657 009.5470 12.83330406611337
HST
1 20580U 90037B   03056.23090891  .00001658  00000-0  12431-3 0  3392
2 20580  28.4693 354.7980 0003683 339.2055 168.3790 14.97845977503634
EUTELSAT 2-F1
1 20777U 90079B   03055.75572645 -.00000111  00000-0  10000-3 0   373
2 20777   3.5162  84.4956 0002215 310.2513 107.4540  1.00270552 26161
FENGYUN 1B
1 20788U 90081A   03056.52692527  .00000052  00000-0  63175-4 0  8908
2 20788  99.0268  38.6386 0015570 208.8358 151.1948 14.02136169638512
EUTELSAT 2-F2
1 21056U 91003B   03055.70812763  .00000106  00000-0  10000-3 0  6194
2 21056   2.7492  87.9423 0004739 166.4246 203.3883  1.00279541 31948
INFORMATOR 1
1 21087U 91006A   03056.18088861  .00000090  00000-0  78712-4 0  6016
2 21087  82.9437 312.5112 0033547 231.3792 128.4359 13.74927443605790
COSMOS 2123
1 21089U 91007A   03055.87424669 +.00000057 +00000-0 +44957-4 0 05234
2 21089 082.9231 176.7011 0027638 269.6779 090.1209 13.74404866604657
ASTRA 1B
1 21139U 91015A   03049.00000000  .00000116  00000-0  10000-3 0  1611
2 21139   0.0122 319.8851 0002995  65.1991 141.6493  1.00273184 32182
METEOSAT 5 (MOP 2)
1 21140U 91015B   03055.65687686  .00000006  00000-0  10000-3 0  7335
2 21140   5.6425  69.8983 0001305 147.7138 235.8518  1.00275638 46111
NOAA 12
1 21263U 91032A   03055.94308448 +.00000265 +00000-0 +13158-3 0 09851
2 21263 098.6270 045.4627 0013282 007.3938 352.7437 14.25085939612121
OSCAR 22 (UoSAT 5)
1 21575U 91050B   03056.52990159  .00000267  00000-0  99233-4 0  7341
2 21575  98.1415  48.3006 0008363 108.6928 251.5170 14.39159592609289
METEOR 3-5
1 21655U 91056A   03055.97982516 +.00000051 +00000-0 +10000-3 0 06302
2 21655 082.5549 034.3284 0012697 178.3886 181.7280 13.16980036554327
UARS
1 21701U 91063B   03055.68242517  .00000513  00000-0  56853-4 0  8324
2 21701  56.9829   7.3046 0004412 113.7653 246.3837 15.02870565626634
EUTELSAT 2-F3
1 21803U 91083A   03051.82541764  .00000124  00000-0  10000-3 0  5246
2 21803   2.6025  89.0644 0003498 285.9590  94.1679  1.00280742 37026
INMARSAT 2-F3
1 21814U 91084B   03054.35330983  .00000102  00000-0  10000-3 0  6213
2 21814   1.7536  58.4643 0002896 282.9117 156.5856  1.00271555 40944
INMARSAT 2-F4
1 21940U 92021B   03055.64438402 -.00000364  00000-0  10000-3 0  5730
2 21940   2.3921  19.1809 0002668 212.0827 263.7763  1.00264880 39743
EUTELSAT 2-F4
1 22028U 92041B   03052.59043583 -.00000106 +00000-0 +10000-3 0 03331
2 22028 001.7240 092.4650 0006109 235.3032 023.5664 01.00271843031804
OSCAR 23 (KITSAT 1)
1 22077U 92052B   03055.94261038 -.00000037 +00000-0 +10000-3 0 02787
2 22077 066.0868 112.3815 0015635 271.9974 087.9255 12.86408676495129
ASTRA 1C
1 22653U 93031A   03049.00000000  .00000116  00000-0  10000-3 0  7888
2 22653   0.0122 319.8851 0002995  65.1991 141.6099  1.00273184 30881
METEOR 2-21
1 22782U 93055A   03055.60940571 -.00000053  00000-0 -61059-4 0  5269
2 22782  82.5489 210.1019 0021671 332.0013  27.9967 13.83532076478920
KITSAT B
1 22825U 93061C   03055.98449923 +.00000097 +00000-0 +54475-4 0 04977
2 22825 098.2743 085.3541 0007507 238.2008 121.8445 14.28945457490795
POSAT 1
1 22826U 93061D   03055.59370808 +.00000150 +00000-0 +75404-4 0 03176
2 22826 098.2747 086.1023 0008004 242.1396 117.8968 14.29168881490784
ITAMSAT
1 22828U 93061F   03055.64258940  .00000110  00000-0  58928-4 0  4333
2 22828  98.2711  86.4121 0009130 217.2684 142.7865 14.29510423458996
EYESAT A
1 22829U 93061G   03056.49045320  .00000183  00000-0  87115-4 0  4592
2 22829  98.2718  87.8261 0008998 214.3326 145.7278 14.29772152491049
METEOSAT 6
1 22912U 93073B   03051.81446144  .00000056  00000-0  00000+0 0  6884
2 22912   2.6769  82.0054 0032321 356.1752  14.7022  1.00272947 32325
GOES 8
1 23051U 94022A   03055.2 23051   0.3106 102.9546 0000827 269.1267 113.0056  1.00275725 39861
ASTRA 1D
1 23331U 94070A   03052.80144086  .00000132  00000-0  00000+0 0  8199
2 23331   0.0537 223.1440 0013728 173.9673  66.7649  1.00275913 30900
RADIO ROSTO
1 23439U 94085A   03055.41335031 -.00000040 +00000-0 +63370-4 0 06894
2 23439 064.8161 032.0287 0146717 114.0454 247.5899 11.27547632336257
NOAA 14
1 23455U 94089A   03055.98734994 +.00000105 +00000-0 +81216-4 0 05382
2 23455 099.1868 074.7246 0008742 208.8925 151.1763 14.13299786420388
HIMAWARI 5 (GMS 5)
1 23522U 95011B   03055.13584602 -.00000291  00000-0  00000+0 0  1187
2 23522   1.7776  83.3840 0000664 120.4804 138.8454  1.00275886 28948
HOT BIRD 1
1 23537U 95016B   03051.86711589  .00000082  00000-0  10000-3 0  5366
2 23537   0.1065 111.6969 0007490 174.8875 189.0308  1.00GOES 9
1 23581U 95025A   03055.54810688  .00000104  00000-0  00000+0 0  5319
2 23581   0.2580 277.4942 0011939 247.8299  24.7504  1.00059588 28429
INMARSAT 3-F1
1 23839U 96020A   03055.67518267  .00000005  00000-0  00000+0 0  8754
2 23839   0.0793 325.6970 0007481  35.0721 100.2314  1.00269282 25273
ASTRA 1F
1 23842U 96021A   03049.00000000  .00000116  00000-0  10000-3 0  5609
2 23842   0.0122 319.8851 0002995  65.1991 141.6521  1.00273184 25112
JAS 2
1 24278U 96046B   03055.90199122 -.00000005 +00000-0 +31691-4 0 05732
2 24278 098.5379 206.2630 0350317 199.9725 158.7413 13.52872861322162
UNAMSAT
1 24305U 96052B   03056.55460329  .00000205  00000-0  20364-3 0  6659
2 24305  82.9297 257.6139 0029571 180.9548 179.1545 13.73452570324441
INMARSAT 3-F2
1 24307U 96053A   03056.37332598 -.00000138  00000-0  00000+0 0   851
2 24307   0.0628  10.0341 0005559 345.0428 278.5919  1.00271450 23683
HOT BIRD 2
1 24665U 96067A   03051.87295777  .00000081  00000-0  10000-3 0  3438
2 24665   0.0602 278.0569 0008075  45.8891 153.6489  1.00273748 23288
INMARSAT 3-F3
1 24674U 96070A   03055.60710036  .00000027  00000-0  10000-3 0  9949
2 24674   0.0675 307.1217 0003799   9.4976 234.0207  1.00272448 22647
GOES 10
1 24786U 97019A   03055.71422109  .00000077  00000-0  00000+0 0  5610
2 24786   0.1511 105.4345 0002149 267.7854 262.8884  1.00261442 21397
INMARSAT 3-F4
1 24819U 97027A   03054.31435635 -.00000295  00000-0  10000-3 0  8889
2 24819   0.0432 294.5288 0003935  36.0427 241.3306  1.00267632 21059
FENGYUN 2A
1 24834U 97029A   03055.72074264 -.00000208  00000-0  00000+0 0  9689
2 24834   2.5870  88.3812 0001212 212.1120 199.0165  1.00280350 20901
HOT BIRD 3
1 24931U 97049A   03051.86334527  .00000081  00000-0  10000-3 0  4274
2 24931   0.0478 160.3357 0010425 174.4081 139.3861  1.00275316 20101
METEOSAT 7
1 24932U 97049B   03054.88922228 -.00000008 +00000-0 +00000-0 0 02556
2 24932 000.2213 065.3564 0001145 262.1847 146.6053 01.00280731020076
ASTRA 1G
1 25071U 97076A   03049.00000000  .00000116  00000-0  10000-3 0  3929
2 25071   0.0122 319.8851 0002995  65.1991 141.6317  1.00273184 19136
